Location: Kott?ru
(16.6209°N, 80.6208°E)
Time: 19:08:05
(UTC+00:00)

O/OREOS (USA 219) - Visible Passes

Search period start: 15 April 2024 00:00
Search period end: 25 April 2024 00:00
Orbit: 621 x 646 km, 72.0° (Epoch: 22 May)

Date Brightness Start Highest point End Pass type
(mag) Time Alt. Az. Time Alt. Az. Time Alt. Az.
15 Apr ? 14:07:37 10° WSW 14:11:07 21° WNW 14:14:36 10° NNW visible
16 Apr ? 23:14:26 10° NE 23:16:37 13° ENE 23:18:48 10° E visible
17 Apr ? 13:11:23 10° SSW 13:15:50 51° WNW 13:20:18 10° N visible
17 Apr ? 23:34:38 10° N 23:38:46 36° ENE 23:42:52 10° SE visible
18 Apr ? 13:34:44 10° WSW 13:37:56 19° WNW 13:41:09 10° NNW visible
18 Apr ? 23:56:19 10° NNW 00:00:46 74° WSW 00:05:12 10° S visible
19 Apr ? 22:40:48 10° NNE 22:43:27 15° ENE 22:46:05 10° ESE visible
20 Apr ? 23:01:20 10° N 23:05:34 42° ENE 23:09:47 10° SE visible
21 Apr ? 23:23:09 10° NNW 23:27:34 63° WSW 23:31:57 10° S visible
22 Apr ? 22:07:16 10° NNE 22:10:16 18° ENE 22:13:17 10° ESE visible
22 Apr ? 23:46:04 10° NW 23:49:27 21° WSW 23:52:51 10° SSW visible
23 Apr ? 22:28:03 10° N 22:32:22 49° ENE 22:36:40 10° SSE visible
24 Apr ? 22:50:01 10° NNW 22:54:21 54° WSW 22:58:41 10° S visible
